User: anonymous   Login
Location: Trois-Rivi�res
(46.3500°N, 72.5500°W)
Time: 15:38:27
(UTC-04:00)
Language:

Vanguard 3 - Orbit

View from above orbital plane
View from above orbital plane
View from above satellite
View from above satellite

Ground track
Ground track

The orbit data is extracted from the following two-line orbital elements,

1 00020U 59007A   18199.87871278  .00000053  00000-0  17935-4 0  9996
2 00020  33.3412 154.0528 1667184 156.0619 212.7470 11.55590011149685
Epoch (UTC): 18 July 2018 21:05:20
Eccentricity: 0.1667184
inclination: 33.3412°
perigee height: 508 km
apogee height: 3264 km
right ascension of ascending node: 154.0528°
argument of perigee: 156.0619°
revolutions per day: 11.55590011
mean anomaly at epoch: 212.7470°
orbit number at epoch: 14968

The dashed part of the orbit path shows where the satellite is in the earth's shadow,  

DLR